Location: Castle
(40.7167°S, 175.9500°E)
Time: 03:27:30
(UTC+00:00)

SL-8 R/B - Pass Details

Date: 04 August 2024
Orbit: 651 x 661 km, 48.4° (Epoch: 07 September)

Event Time Altitude Azimuth Distance (km) Brightness Sun altitude
Exits shadow 18:04:00 23° 261° (W) 1,418 4.8 -14.4°
Maximum altitude 18:06:42 46° 199° (SSW) 898 4.2 -13.9°
Drops below altitude 10° 18:11:21 10° 125° (SE) 2,089 6.9 -13.0°
Sets 18:13:48 0° 118° (ESE) 3,001 7.9 -12.5°
